| time (UTC) | temp C | wind direction | speed KPH | gust KPH | rain 1hr cm | rain 24hr cm | rain mn cm | humidity % | barometer mb |
| 20260504130600 | 10 | 214 | 9.7 | 19.3 | 0.00 | 0.00 | 0.00 | 61 | 1006.9 |
| 20260504120131 | 8 | 0 | 1.6 | 4.8 | 0.00 | 0.00 | 0.00 | 71 | 1007.2 |
| 20260504110601 | 6 | 235 | 0.0 | 11.3 | 0.00 | 0.00 | 0.00 | 80 | 1007.5 |
| 20260504100557 | 5 | 0 | 0.0 | 4.8 | 0.00 | 0.00 | 0.00 | 84 | 1007.5 |
| 20260504090105 | 5 | 25 | 1.6 | 6.4 | 0.00 | 0.00 | 0.00 | 84 | 1007.5 |
| 20260504081603 | 5 | 120 | 0.0 | 4.8 | 0.00 | 0.00 | 0.00 | 79 | 1007.4 |
| 20260504081056 | 5 | 0 | 0.0 | 6.4 | 0.00 | 0.00 | 0.00 | 78 | 1007.6 |
| 20260504080556 | 5 | 0 | 0.0 | 6.4 | 0.00 | 0.00 | 0.00 | 77 | 1007.6 |
| 20260504080104 | 5 | 213 | 1.6 | 6.4 | 0.00 | 0.00 | 0.00 | 77 | 1007.8 |
| 20260504060106 | 4 | 200 | 0.0 | 3.2 | 0.00 | 0.00 | 0.00 | 72 | 1008.0 |
| 20260504050557 | 5 | 228 | 4.8 | 9.7 | 0.00 | 0.00 | 0.00 | 58 | 1008.0 |
| 20260504045600 | 5 | 236 | 3.2 | 9.7 | 0.00 | 0.00 | 0.00 | 55 | 1008.0 |
| 20260504045056 | 5 | 227 | 1.6 | 6.4 | 0.00 | 0.00 | 0.00 | 56 | 1008.0 |
| 20260504044559 | 5 | 227 | 3.2 | 17.7 | 0.00 | 0.00 | 0.00 | 56 | 1008.1 |
| 20260504044058 | 5 | 227 | 4.8 | 17.7 | 0.00 | 0.00 | 0.00 | 57 | 1008.2 |
| 20260504043558 | 5 | 225 | 8.0 | 17.7 | 0.00 | 0.00 | 0.00 | 56 | 1008.2 |
| 20260504043114 | 4 | 231 | 3.2 | 8.0 | 0.00 | 0.00 | 0.00 | 56 | 1008.2 |
| 20260504042557 | 4 | 148 | 3.2 | 6.4 | 0.00 | 0.00 | 0.00 | 56 | 1008.3 |
| 20260504042101 | 4 | 215 | 1.6 | 6.4 | 0.00 | 0.00 | 0.00 | 54 | 1008.4 |
| 20260504041558 | 4 | 213 | 3.2 | 6.4 | 0.00 | 0.00 | 0.00 | 55 | 1008.4 |
| 20260504041057 | 4 | 205 | 3.2 | 6.4 | 0.00 | 0.00 | 0.00 | 56 | 1008.4 |
| 20260504040600 | 4 | 189 | 1.6 | 4.8 | 0.00 | 0.00 | 0.00 | 56 | 1008.2 |
| 20260504040059 | 5 | 0 | 1.6 | 8.0 | 0.00 | 0.00 | 0.00 | 54 | 1008.3 |
| 20260504035558 | 5 | 211 | 3.2 | 11.3 | 0.00 | 0.00 | 0.00 | 52 | 1008.3 |
| 20260504035056 | 5 | 236 | 1.6 | 11.3 | 0.00 | 0.00 | 0.00 | 52 | 1008.2 |
| 20260504034600 | 5 | 225 | 3.2 | 9.7 | 0.00 | 0.00 | 0.00 | 52 | 1008.2 |
| 20260504034059 | 4 | 248 | 3.2 | 9.7 | 0.00 | 0.00 | 0.00 | 54 | 1008.3 |
| 20260504033557 | 3 | 209 | 3.2 | 9.7 | 0.00 | 0.00 | 0.00 | 56 | 1008.2 |
| 20260504033107 | 3 | 217 | 0.0 | 4.8 | 0.00 | 0.00 | 0.00 | 57 | 1008.2 |
| 20260504032557 | 3 | 0 | 1.6 | 4.8 | 0.00 | 0.00 | 0.00 | 59 | 1008.2 |
| 20260504032057 | 3 | 102 | 0.0 | 6.4 | 0.00 | 0.00 | 0.00 | 61 | 1008.1 |
| 20260504031559 | 3 | 102 | 1.6 | 6.4 | 0.00 | 0.00 | 0.00 | 60 | 1008.2 |
| 20260504031057 | 2 | 102 | 1.6 | 6.4 | 0.00 | 0.00 | 0.00 | 60 | 1008.2 |
| 20260504030557 | 2 | 73 | 1.6 | 6.4 | 0.00 | 0.00 | 0.00 | 61 | 1008.2 |
| 20260504030115 | 2 | 281 | 0.0 | 4.8 | 0.00 | 0.00 | 0.00 | 64 | 1008.2 |
| 20260504025557 | 2 | 0 | 0.0 | 4.8 | 0.00 | 0.00 | 0.00 | 63 | 1008.3 |
| 20260504025057 | 2 | 281 | 0.0 | 6.4 | 0.00 | 0.00 | 0.00 | 62 | 1008.3 |
| 20260504024559 | 3 | 86 | 3.2 | 6.4 | 0.00 | 0.00 | 0.00 | 59 | 1008.4 |
| 20260504024057 | 3 | 86 | 3.2 | 6.4 | 0.00 | 0.00 | 0.00 | 56 | 1008.3 |
| 20260504023557 | 3 | 96 | 3.2 | 4.8 | 0.00 | 0.00 | 0.00 | 56 | 1008.4 |
| 20260504023057 | 3 | 92 | 1.6 | 4.8 | 0.00 | 0.00 | 0.00 | 56 | 1008.4 |
| 20260504022559 | 3 | 92 | 1.6 | 4.8 | 0.00 | 0.00 | 0.00 | 56 | 1008.4 |
| 20260504022100 | 3 | 0 | 0.0 | 4.8 | 0.00 | 0.00 | 0.00 | 57 | 1008.4 |
| 20260504021558 | 3 | 91 | 0.0 | 4.8 | 0.00 | 0.00 | 0.00 | 55 | 1008.4 |
| 20260504021057 | 4 | 91 | 1.6 | 4.8 | 0.00 | 0.00 | 0.00 | 53 | 1008.4 |
| 20260504020559 | 5 | 91 | 1.6 | 4.8 | 0.00 | 0.00 | 0.00 | 52 | 1008.3 |
| 20260504020107 | 5 | 135 | 1.6 | 4.8 | 0.00 | 0.00 | 0.00 | 52 | 1008.5 |
| 20260504015558 | 5 | 17 | 1.6 | 6.4 | 0.00 | 0.00 | 0.00 | 51 | 1008.5 |
| 20260504015058 | 4 | 70 | 1.6 | 8.0 | 0.00 | 0.00 | 0.00 | 54 | 1008.5 |
| 20260504014606 | 4 | 225 | 0.0 | 8.0 | 0.00 | 0.00 | 0.00 | 54 | 1008.4 |
| 20260504014057 | 4 | 235 | 0.0 | 3.2 | 0.00 | 0.00 | 0.00 | 54 | 1008.5 |
| 20260504013557 | 5 | 0 | 0.0 | 3.2 | 0.00 | 0.00 | 0.00 | 53 | 1008.5 |
| 20260504013057 | 5 | 0 | 0.0 | 3.2 | 0.00 | 0.00 | 0.00 | 53 | 1008.5 |
| 20260504012557 | 4 | 0 | 0.0 | 0.0 | 0.00 | 0.00 | 0.00 | 53 | 1008.3 |
| 20260504012057 | 4 | 0 | 0.0 | 1.6 | 0.00 | 0.00 | 0.00 | 54 | 1008.4 |
| 20260504011558 | 5 | 0 | 0.0 | 3.2 | 0.00 | 0.00 | 0.00 | 54 | 1008.4 |
| 20260504011058 | 4 | 0 | 0.0 | 3.2 | 0.00 | 0.00 | 0.00 | 55 | 1008.3 |
| 20260504010556 | 4 | 0 | 0.0 | 3.2 | 0.00 | 0.00 | 0.00 | 55 | 1008.3 |
| 20260504005600 | 5 | 240 | 1.6 | 6.4 | 0.00 | 0.00 | 0.00 | 54 | 1008.1 |
| 20260504005058 | 5 | 240 | 1.6 | 6.4 | 0.00 | 0.00 | 0.00 | 55 | 1008.1 |
| 20260504004558 | 5 | 240 | 1.6 | 6.4 | 0.00 | 0.00 | 0.00 | 56 | 1007.9 |
| 20260504004058 | 5 | 282 | 1.6 | 4.8 | 0.00 | 0.00 | 0.00 | 56 | 1007.9 |
| 20260504003557 | 4 | 0 | 0.0 | 4.8 | 0.00 | 0.00 | 0.00 | 56 | 1007.8 |
| 20260504003109 | 5 | 264 | 1.6 | 4.8 | 0.00 | 0.00 | 0.00 | 57 | 1007.9 |
| 20260504002557 | 5 | 264 | 1.6 | 4.8 | 0.00 | 0.00 | 0.00 | 55 | 1007.9 |
| 20260504002100 | 5 | 264 | 1.6 | 3.2 | 0.00 | 0.00 | 0.00 | 53 | 1007.9 |
| 20260504001602 | 5 | 0 | 0.0 | 1.6 | 0.00 | 0.00 | 0.00 | 53 | 1007.9 |
| 20260504001056 | 5 | 0 | 0.0 | 3.2 | 0.00 | 0.00 | 0.00 | 53 | 1007.9 |
| 20260504000601 | 5 | 0 | 0.0 | 3.2 | 0.00 | 0.00 | 0.00 | 53 | 1007.8 |
| 20260504000103 | 5 | 0 | 0.0 | 4.8 | 0.00 | 0.00 | 0.00 | 52 | 1007.8 |
| 20260503235559 | 6 | 0 | 0.0 | 9.7 | 0.00 | 0.00 | 0.00 | 52 | 1007.9 |
| 20260503235058 | 6 | 0 | 3.2 | 12.9 | 0.00 | 0.00 | 0.00 | 52 | 1007.8 |
| 20260503234601 | 6 | 243 | 3.2 | 12.9 | 0.00 | 0.00 | 0.00 | 51 | 1007.7 |
| 20260503234101 | 6 | 247 | 3.2 | 12.9 | 0.00 | 0.00 | 0.00 | 51 | 1007.6 |
| 20260503233602 | 6 | 298 | 1.6 | 12.9 | 0.00 | 0.00 | 0.00 | 52 | 1007.6 |
| 20260503233110 | 6 | 244 | 3.2 | 12.9 | 0.00 | 0.00 | 0.00 | 52 | 1007.6 |
| 20260503232600 | 6 | 297 | 3.2 | 14.5 | 0.00 | 0.00 | 0.00 | 51 | 1007.7 |
| 20260503232057 | 6 | 169 | 4.8 | 16.1 | 0.00 | 0.00 | 0.00 | 50 | 1007.6 |
| 20260503231558 | 6 | 248 | 8.0 | 16.1 | 0.00 | 0.00 | 0.00 | 50 | 1007.7 |
| 20260503231101 | 6 | 305 | 3.2 | 17.7 | 0.00 | 0.00 | 0.00 | 50 | 1007.6 |
| 20260503230559 | 6 | 259 | 1.6 | 17.7 | 0.00 | 0.00 | 0.00 | 50 | 1007.5 |
| 20260503230113 | 6 | 293 | 6.4 | 16.1 | 0.00 | 0.00 | 0.00 | 49 | 1007.6 |
| 20260503225557 | 6 | 258 | 4.8 | 16.1 | 0.00 | 0.00 | 0.00 | 49 | 1007.4 |
| 20260503225057 | 7 | 40 | 3.2 | 14.5 | 0.00 | 0.00 | 0.00 | 49 | 1007.4 |
| 20260503224609 | 7 | 355 | 4.8 | 16.1 | 0.00 | 0.00 | 0.00 | 50 | 1007.4 |
| 20260503224057 | 7 | 250 | 4.8 | 19.3 | 0.00 | 0.00 | 0.00 | 51 | 1007.4 |
| 20260503223558 | 7 | 281 | 9.7 | 19.3 | 0.00 | 0.00 | 0.00 | 50 | 1007.5 |
| 20260503223111 | 7 | 259 | 6.4 | 19.3 | 0.00 | 0.00 | 0.00 | 51 | 1007.4 |
| 20260503222559 | 7 | 228 | 8.0 | 19.3 | 0.00 | 0.00 | 0.00 | 50 | 1007.4 |
| 20260503222100 | 7 | 255 | 3.2 | 19.3 | 0.00 | 0.00 | 0.00 | 50 | 1007.4 |
| 20260503221558 | 7 | 330 | 4.8 | 19.3 | 0.00 | 0.00 | 0.00 | 50 | 1007.3 |
| 20260503221058 | 7 | 323 | 9.7 | 19.3 | 0.00 | 0.00 | 0.00 | 54 | 1007.4 |
| 20260503220558 | 7 | 244 | 6.4 | 19.3 | 0.00 | 0.00 | 0.00 | 48 | 1007.4 |
| 20260503220059 | 7 | 327 | 4.8 | 19.3 | 0.00 | 0.00 | 0.00 | 48 | 1007.4 |
| 20260503215558 | 7 | 355 | 8.0 | 20.9 | 0.00 | 0.00 | 0.00 | 48 | 1007.3 |
| 20260503215059 | 8 | 331 | 8.0 | 22.5 | 0.00 | 0.00 | 0.00 | 47 | 1007.3 |
| 20260503214600 | 7 | 300 | 9.7 | 22.5 | 0.00 | 0.00 | 0.00 | 50 | 1007.3 |
| 20260503214058 | 7 | 349 | 6.4 | 20.9 | 0.00 | 0.00 | 0.00 | 50 | 1007.4 |
| 20260503213600 | 7 | 219 | 8.0 | 20.9 | 0.00 | 0.00 | 0.00 | 48 | 1007.4 |
| 20260503213057 | 8 | 325 | 9.7 | 20.9 | 0.00 | 0.00 | 0.00 | 48 | 1007.4 |
| 20260503212557 | 8 | 350 | 6.4 | 19.3 | 0.00 | 0.00 | 0.00 | 49 | 1007.5 |
| 20260503212057 | 7 | 328 | 4.8 | 19.3 | 0.00 | 0.00 | 0.00 | 52 | 1007.3 |
| 20260503211556 | 7 | 340 | 6.4 | 19.3 | 0.00 | 0.00 | 0.00 | 51 | 1007.4 |
| 20260503211057 | 7 | 166 | 4.8 | 16.1 | 0.00 | 0.00 | 0.00 | 51 | 1007.3 |
| 20260503210558 | 7 | 307 | 6.4 | 17.7 | 0.00 | 0.00 | 0.00 | 50 | 1007.3 |
| 20260503210058 | 7 | 13 | 8.0 | 19.3 | 0.00 | 0.00 | 0.00 | 50 | 1007.4 |
| 20260503205558 | 7 | 242 | 8.0 | 19.3 | 0.00 | 0.00 | 0.00 | 50 | 1007.3 |
| 20260503205058 | 7 | 167 | 3.2 | 19.3 | 0.00 | 0.00 | 0.00 | 54 | 1007.4 |
| 20260503204557 | 7 | 279 | 8.0 | 20.9 | 0.00 | 0.00 | 0.00 | 51 | 1007.3 |
| 20260503204057 | 7 | 294 | 6.4 | 20.9 | 0.00 | 0.00 | 0.00 | 52 | 1007.3 |
| 20260503203557 | 6 | 309 | 8.0 | 20.9 | 0.00 | 0.00 | 0.00 | 52 | 1007.2 |
| 20260503203058 | 6 | 331 | 4.8 | 16.1 | 0.00 | 0.00 | 0.00 | 54 | 1007.3 |
| 20260503202557 | 6 | 337 | 3.2 | 20.9 | 0.00 | 0.00 | 0.00 | 55 | 1007.2 |
| 20260503202057 | 6 | 13 | 8.0 | 20.9 | 0.00 | 0.00 | 0.00 | 54 | 1007.2 |
| 20260503201558 | 6 | 326 | 9.7 | 20.9 | 0.00 | 0.00 | 0.00 | 51 | 1007.4 |
| 20260503201059 | 6 | 306 | 8.0 | 25.7 | 0.00 | 0.00 | 0.00 | 54 | 1007.3 |
| 20260503200557 | 6 | 232 | 9.7 | 25.7 | 0.00 | 0.00 | 0.00 | 54 | 1007.3 |
| 20260503200058 | 6 | 247 | 6.4 | 20.9 | 0.00 | 0.00 | 0.00 | 53 | 1007.3 |
| 20260503195557 | 6 | 238 | 4.8 | 16.1 | 0.00 | 0.00 | 0.00 | 55 | 1007.4 |
| 20260503195057 | 6 | 340 | 1.6 | 17.7 | 0.00 | 0.00 | 0.00 | 57 | 1007.4 |
| 20260503194619 | 6 | 318 | 3.2 | 17.7 | 0.00 | 0.00 | 0.00 | 54 | 1007.5 |
| 20260503194058 | 6 | 270 | 8.0 | 19.3 | 0.00 | 0.00 | 0.00 | 53 | 1007.6 |
| 20260503193558 | 6 | 324 | 4.8 | 19.3 | 0.00 | 0.00 | 0.00 | 54 | 1007.6 |
| 20260503193056 | 6 | 285 | 9.7 | 19.3 | 0.00 | 0.00 | 0.00 | 55 | 1007.6 |
| 20260503192557 | 6 | 305 | 6.4 | 22.5 | 0.00 | 0.00 | 0.00 | 53 | 1007.7 |
| 20260503192059 | 6 | 23 | 8.0 | 22.5 | 0.00 | 0.00 | 0.00 | 52 | 1007.6 |
| 20260503191604 | 6 | 320 | 6.4 | 22.5 | 0.00 | 0.00 | 0.00 | 52 | 1007.7 |
| 20260503191057 | 6 | 308 | 8.0 | 25.7 | 0.00 | 0.00 | 0.00 | 50 | 1007.6 |
| 20260503190557 | 6 | 30 | 8.0 | 25.7 | 0.00 | 0.00 | 0.00 | 51 | 1007.6 |
| 20260503190058 | 7 | 257 | 8.0 | 27.4 | 0.00 | 0.00 | 0.00 | 50 | 1007.6 |
| 20260503185559 | 6 | 295 | 8.0 | 27.4 | 0.00 | 0.00 | 0.00 | 50 | 1007.5 |
| 20260503185103 | 7 | 301 | 11.3 | 27.4 | 0.00 | 0.00 | 0.00 | 50 | 1007.7 |
| 20260503184555 | 6 | 298 | 9.7 | 27.4 | 0.00 | 0.00 | 0.00 | 50 | 1007.6 |
| 20260503184059 | 7 | 317 | 14.5 | 24.1 | 0.00 | 0.00 | 0.00 | 50 | 1007.5 |
| 20260503183559 | 7 | 340 | 8.0 | 20.9 | 0.00 | 0.00 | 0.00 | 50 | 1007.6 |
| 20260503183101 | 6 | 19 | 9.7 | 27.4 | 0.00 | 0.00 | 0.00 | 47 | 1007.7 |
| 20260503182557 | 6 | 306 | 12.9 | 27.4 | 0.00 | 0.00 | 0.00 | 48 | 1007.6 |
| 20260503182057 | 6 | 355 | 14.5 | 27.4 | 0.00 | 0.00 | 0.00 | 46 | 1007.7 |
| 20260503181608 | 7 | 300 | 9.7 | 20.9 | 0.00 | 0.00 | 0.00 | 46 | 1007.6 |
| 20260503181101 | 7 | 268 | 9.7 | 20.9 | 0.00 | 0.00 | 0.00 | 47 | 1007.5 |
| 20260503180601 | 7 | 254 | 9.7 | 27.4 | 0.00 | 0.00 | 0.00 | 46 | 1007.6 |
| 20260503180101 | 7 | 9 | 9.7 | 43.5 | 0.00 | 0.00 | 0.00 | 45 | 1007.5 |
| 20260503175557 | 7 | 235 | 12.9 | 43.5 | 0.00 | 0.00 | 0.00 | 50 | 1007.5 |
| 20260503175059 | 7 | 266 | 19.3 | 33.8 | 0.00 | 0.00 | 0.00 | 48 | 1007.6 |
| 20260503174616 | 7 | 244 | 9.7 | 24.1 | 0.00 | 0.00 | 0.00 | 49 | 1007.5 |
| 20260503174102 | 7 | 360 | 8.0 | 24.1 | 0.00 | 0.00 | 0.00 | 48 | 1007.4 |
| 20260503173558 | 7 | 248 | 11.3 | 24.1 | 0.00 | 0.00 | 0.00 | 48 | 1007.5 |
| 20260503173110 | 7 | 263 | 4.8 | 24.1 | 0.00 | 0.00 | 0.00 | 48 | 1007.6 |
| 20260503172559 | 6 | 273 | 6.4 | 27.4 | 0.00 | 0.00 | 0.00 | 48 | 1007.6 |
| 20260503172057 | 6 | 293 | 9.7 | 27.4 | 0.00 | 0.00 | 0.00 | 47 | 1007.6 |
| 20260503171600 | 6 | 253 | 16.1 | 27.4 | 0.00 | 0.00 | 0.00 | 51 | 1007.5 |
| 20260503171058 | 7 | 345 | 9.7 | 25.7 | 0.00 | 0.00 | 0.00 | 50 | 1007.6 |
| 20260503170601 | 7 | 308 | 6.4 | 24.1 | 0.00 | 0.00 | 0.00 | 53 | 1007.6 |
| 20260503170114 | 7 | 345 | 6.4 | 20.9 | 0.00 | 0.00 | 0.00 | 52 | 1007.5 |
| 20260503150600 | 6 | 25 | 6.4 | 29.0 | 0.00 | 0.03 | 0.00 | 55 | 1008.3 |